This demonstration page uses our WeatherBlox Daily Observations layout. Learn more.

39.29038, -76.61219

Hourly Observations for September 7, 2019

Temp ( °F °C ) Dew Point ( °F °C ) Humidity (%) Winds ( mph kmh ) Pressure ( in mb ) Visibility ( mi km ) Precip ( " mm )
12:54 am 00:54 undefined 65 18.3 55 12.8 70 70 undefined N/A 29.82 1010 N/A 0 0
1:54 am 01:54 undefined 65 18.3 55 12.8 70 70 undefined N/A 29.83 1010 N/A 0 0
2:54 am 02:54 undefined 64 17.8 54 12.2 70 70 undefined N/A 29.82 1010 N/A 0 0
3:54 am 03:54 undefined 63 17.2 53 11.7 70 70 undefined N/A 29.82 1010 N/A 0 0
4:54 am 04:54 undefined 63 17.2 54 12.2 73 73 undefined N/A 29.83 1010 N/A 0 0
5:54 am 05:54 undefined 63 17.2 54 12.2 73 73 undefined N/A 29.84 1010 N/A 0 0
6:54 am 06:54 undefined 62 16.7 54 12.2 75 75 undefined N/A 29.86 1011 N/A 0 0
7:54 am 07:54 undefined 66 18.9 56 13.3 70 70 undefined N/A 29.88 1012 N/A 0 0
8:54 am 08:54 undefined 69 20.6 55 12.8 61 61 undefined N/A 29.89 1012 N/A 0 0
9:54 am 09:54 undefined 72 22.2 55 12.8 55 55 undefined N/A 29.89 1012 N/A 0 0
10:54 am 10:54 undefined 75 23.9 59 15 58 58 undefined N/A 29.89 1012 N/A 0 0
11:54 am 11:54 undefined 77 25 58 14.4 52 52 undefined N/A 29.88 1012 N/A 0 0
12:54 pm 12:54 undefined 79 26.1 57 13.9 47 47 undefined N/A 29.88 1012 N/A 0 0
1:54 pm 13:54 undefined 80 26.7 55 12.8 42 42 undefined N/A 29.86 1011 N/A 0 0
2:54 pm 14:54 undefined 82 27.8 57 13.9 42 42 undefined N/A 29.86 1011 N/A 0 0
3:54 pm 15:54 undefined 83 28.3 55 12.8 38 38 undefined N/A 29.86 1011 N/A 0 0
4:54 pm 16:54 undefined 83 28.3 55 12.8 38 38 undefined N/A 29.86 1011 N/A 0 0
5:54 pm 17:54 undefined 80 26.7 54 12.2 41 41 undefined N/A 29.87 1012 N/A 0 0
6:54 pm 18:54 undefined 80 26.7 54 12.2 41 41 undefined N/A 29.9 1013 N/A 0 0
7:54 pm 19:54 undefined 78 25.6 54 12.2 43 43 undefined N/A 29.91 1013 N/A 0 0
8:54 pm 20:54 undefined 76 24.4 55 12.8 48 48 undefined N/A 29.93 1014 N/A 0 0
9:54 pm 21:54 undefined 76 24.4 56 13.3 50 50 undefined N/A 29.95 1014 N/A 0 0
10:54 pm 22:54 undefined 74 23.3 56 13.3 54 54 undefined N/A 29.96 1015 N/A 0 0
11:54 pm 23:54 undefined 72 22.2 56 13.3 57 57 undefined N/A 29.96 1015 N/A 0 0

Powered by AerisWeather